西村彗星

C/2023 P1 ( Nishimura )

English version
Home page
Updated on February 29, 2024

---------------------------------------------------------------------

・ プロフィール

発見日 2023年8月12日
発見光度 10.4等
発見者 西村栄男(静岡県掛川市)

・ 写真集

・ 軌道要素

Epoch 2024 Mar. 31.0 TT = JDT 2460400.5
T 2023 Sept. 17.64327 TT                                Rudenko
q   0.2250723            (2000.0)            P               Q
z  +0.0175231      Peri.  116.29560     +0.38236330     -0.62767910
 +/-0.0000031      Node    66.83756     -0.85518877     -0.51831089
e   0.9960560      Incl.  132.47690     +0.34992926     -0.58083798
>From 765 observations 2023 Jan. 19-2024 Feb. 21, mean residual 0".7.

・ 星図

・ 光度変化

        m1 = 9.0 + 5 logΔ + 17.0 log r  [   ,-35]  (              〜2023年 8月13日)
        m1 = 9.0 + 5 logΔ + 10.0 log r  [-35,   ]  (2023年 8月13日〜              )

---------------------------------------------------------------------

軌道要素はM.P.E.C. 2024-D126に掲載されたものです。
星図はステラナビゲータ Ver.11 (アストロアーツ) で作成したものです。
光度グラフはComet for Windowsで作成したものです。

---------------------------------------------------------------------

Copyright(C) Seiichi Yoshida (comet@aerith.net). All rights reserved.